Weather History for New York JFK, NY

Change the Weather History Date:

Wednesday, February 13, 2013

  Actual Average Record
Temperature  
Mean Temperature 36 °F 35 °F  
Max Temperature 43 °F 41 °F 54 °F (1949)
Min Temperature 28 °F 28 °F 0 °F (1967)
Degree Days  
Heating Degree Days 29 30  
Month to date heating degree days 439 407  
Since 1 July heating degree days 2909 3077  
Cooling Degree Days 0 0  
Month to date cooling degree days 0 0  
Year to date cooling degree days 0 0  
Moisture  
Dew Point 25 °F    
Average Humidity 61    
Maximum Humidity 78    
Minimum Humidity 44    
Precipitation  
Precipitation 0.01 in 0.09 in 1.97 in (1966)
Month to date precipitation 1.49 1.15  
Year to date precipitation 3.88 4.31  
Snow  
Snow T in 0.30 in 3.00 in (1950)
Month to date snowfall 7.4 3.9  
Since 1 July snowfall 13.2 15.1  
Snow Depth 0.00 in    
Sea Level Pressure  
Sea Level Pressure 29.83 in    
Wind  
Wind Speed 5 mph (West)    
Max Wind Speed 16 mph    
Max Gust Speed 22 mph    
Visibility 10 miles    
Events Snow    
T = Trace of Precipitation, MM = Missing Value Source: NWS Daily Summary

Daily Weather History Graph

Daily Weather History Graph

Search for Another Location

Airport:

Trip Planner

Search our weather history database for the weather conditions in past years. The results will help you decide how hot, cold, wet, or windy it might be!

Date:

Astronomy

Feb. 13, 2013 Rise Set
Actual Time 6:51 AM EST 5:27 PM EST
Civil Twilight 6:23 AM EST 5:56 PM EST
Nautical Twilight 5:50 AM EST 6:28 PM EST
Astronomical Twilight 5:19 AM EST 6:59 PM EST
Moon 8:17 AM EST (2/13) 9:29 PM EST (2/13)
Length of Visible Light 11h 33m
Length of Day
10h 36m
Waxing Crescent, 13% of the Moon is Illuminated
Feb 13
Waxing Crescent
Feb 17
First Quarter
Feb 25
Full
Mar 4
Last Quarter
Mar 11
New

Hourly Weather History & Observations

Time (EST) Temp. Windchill Dew Point Humidity Pressure Visibility Wind Dir Wind Speed Gust Speed Precip Events Conditions
12:51 AM 35.1 °F 28.6 °F 24.1 °F 64% 29.95 in 10.0 mi West 8.1 mph - N/A   Scattered Clouds
1:51 AM 30.9 °F 23.5 °F 23.0 °F 72% 29.97 in 10.0 mi WSW 8.1 mph - N/A   Mostly Cloudy
2:51 AM 30.0 °F 22.4 °F 24.1 °F 79% 29.96 in 10.0 mi WSW 8.1 mph - N/A   Mostly Cloudy
3:51 AM 32.0 °F 24.2 °F 25.0 °F 75% 29.94 in 10.0 mi WNW 9.2 mph - N/A   Scattered Clouds
4:51 AM 30.9 °F 22.2 °F 24.1 °F 76% 29.91 in 10.0 mi NNW 10.4 mph - N/A   Scattered Clouds
5:51 AM 30.9 °F - 21.0 °F 67% 29.94 in 10.0 mi Calm Calm - N/A   Scattered Clouds
6:51 AM 32.0 °F - 23.0 °F 69% 29.93 in 10.0 mi Calm Calm - N/A   Scattered Clouds
7:51 AM 34.0 °F - 27.0 °F 75% 29.93 in 10.0 mi Calm Calm - N/A   Scattered Clouds
8:51 AM 37.9 °F 33.5 °F 23.0 °F 55% 29.91 in 10.0 mi NNE 5.8 mph - N/A   Scattered Clouds
9:51 AM 39.9 °F - 19.9 °F 45% 29.90 in 10.0 mi Calm Calm - N/A   Scattered Clouds
10:51 AM 39.0 °F 32.3 °F 21.9 °F 50% 29.91 in 10.0 mi South 10.4 mph - N/A   Scattered Clouds
11:51 AM 39.0 °F 35.7 °F 21.0 °F 49% 29.89 in 10.0 mi SSW 4.6 mph - N/A   Mostly Cloudy
12:51 PM 39.9 °F 36.7 °F 23.0 °F 51% 29.85 in 10.0 mi SW 4.6 mph - N/A   Mostly Cloudy
1:51 PM 42.1 °F - 23.0 °F 47% 29.78 in 10.0 mi Calm Calm - N/A   Mostly Cloudy
2:51 PM 39.0 °F 33.4 °F 25.0 °F 57% 29.79 in 10.0 mi South 8.1 mph - N/A   Mostly Cloudy
3:51 PM 39.0 °F 34.0 °F 25.0 °F 57% 29.77 in 10.0 mi SE 6.9 mph - N/A   Mostly Cloudy
4:51 PM 37.9 °F 35.5 °F 25.0 °F 60% 29.74 in 10.0 mi NE 3.5 mph - N/A   Mostly Cloudy
5:51 PM 37.9 °F 33.5 °F 25.0 °F 60% 29.71 in 10.0 mi ENE 5.8 mph - N/A   Mostly Cloudy
6:51 PM 37.9 °F 35.5 °F 25.0 °F 60% 29.73 in 10.0 mi ESE 3.5 mph - N/A   Overcast
7:51 PM 37.0 °F 33.3 °F 27.0 °F 67% 29.71 in 10.0 mi NE 4.6 mph - 0.00 in Snow Light Snow
8:51 PM 36.0 °F 33.3 °F 28.0 °F 73% 29.72 in 9.0 mi SSE 3.5 mph - 0.00 in Snow Light Snow
9:07 PM 35.6 °F - 28.4 °F 75% 29.72 in 8.0 mi Calm Calm - 0.00 in Snow Light Snow
9:48 PM 35.6 °F - 28.4 °F 75% 29.71 in 9.0 mi Calm Calm - 0.00 in Snow Light Snow
9:51 PM 36.0 °F - 28.9 °F 76% 29.71 in 9.0 mi Calm Calm - 0.00 in Snow Light Snow
10:51 PM 36.0 °F 33.3 °F 28.9 °F 76% 29.71 in 10.0 mi NNW 3.5 mph - 0.00 in   Overcast
11:40 PM 35.6 °F 27.1 °F 28.4 °F 75% 29.71 in 7.0 mi North 12.7 mph - 0.00 in Snow Light Snow
11:51 PM 35.1 °F 25.5 °F 30.0 °F 82% 29.71 in 7.0 mi North 15.0 mph - 0.00 in Snow Light Snow